Weather History for Al Hoceima, Morocco

Change the Weather History Date:

Thursday, January 3, 2013

  Actual Average Record
Temperature  
Mean Temperature 55 °F -  
Max Temperature 64 °F 59 °F 76 °F (2014)
Min Temperature 46 °F 45 °F 41 °F (2000)
Degree Days  
Heating Degree Days 10    
Growing Degree Days 5 (Base 50)    
Moisture  
Dew Point 44 °F    
Average Humidity 60    
Maximum Humidity 82    
Minimum Humidity 38    
Precipitation  
Precipitation 0.00 in - - ()
Sea Level Pressure  
Sea Level Pressure 30.49 in    
Wind  
Wind Speed 6 mph ()    
Max Wind Speed 14 mph    
Max Gust Speed -    
Visibility 6.6 miles    
Events      
Averages and records for this station are not official NWS values.
T = Trace of Precipitation, MM = Missing Value Source: Averaged Metar Reports

Daily Weather History Graph

Daily Weather History Graph

Search for Another Location

Airport:

Trip Planner

Search our weather history database for the weather conditions in past years. The results will help you decide how hot, cold, wet, or windy it might be!

Date:

Astronomy

Jan. 03, 2013 Rise Set
Actual Time 7:24 AM WET 5:15 PM WET
Civil Twilight 6:56 AM WET 5:43 PM WET
Nautical Twilight 6:24 AM WET 6:15 PM WET
Astronomical Twilight 5:53 AM WET 6:46 PM WET
Moon 11:20 PM WET (1/3) 10:42 AM WET (1/3)
Length of Visible Light 10h 47m
Length of Day
9h 51m
Waning Gibbous, 68% of the Moon is Illuminated
Jan 3
Waning Gibbous
Jan 5
Last Quarter
Jan 11
New
Jan 18
First Quarter
Jan 27
Full

Hourly Weather History & Observations

Time (WET) Temp. Dew Point Humidity Pressure Visibility Wind Dir Wind Speed Gust Speed Precip Events Conditions
6:00 AM 49 °F 43 °F 72% 30.40 in 6 mi South 2.3 mph - -   Partly Cloudy
6:00 AM 48.2 °F 42.8 °F 82% 30.39 in 6.2 mi South 2.3 mph - N/A   Scattered Clouds
7:00 AM 51.8 °F 42.8 °F 71% 30.39 in 6.2 mi SSW 2.3 mph - N/A   Scattered Clouds
8:00 AM 53.6 °F 44.6 °F 72% 30.39 in 6.2 mi SSW 4.6 mph - N/A   Scattered Clouds
9:00 AM 57.2 °F 48.2 °F 72% 30.45 in 6.2 mi NE 2.3 mph - N/A   Scattered Clouds
10:00 AM 60.8 °F 48.2 °F 63% 30.48 in 6.2 mi East 11.5 mph - N/A   Scattered Clouds
11:00 AM 60.8 °F 46.4 °F 59% 30.48 in 6.2 mi ESE 9.2 mph - N/A   Partly Cloudy
12:00 PM 61 °F 47 °F 49% 30.49 in 6 mi East 13.8 mph - -   Partly Cloudy
12:00 PM 60.8 °F 46.4 °F 59% 30.48 in 6.2 mi East 13.8 mph - N/A   Partly Cloudy
1:00 PM 62.6 °F 46.4 °F 55% 30.48 in 6.2 mi ESE 13.8 mph - N/A   Scattered Clouds
2:00 PM 62.6 °F 44.6 °F 52% 30.45 in 6.2 mi ESE 11.5 mph - N/A   Scattered Clouds
3:00 PM 63 °F 44 °F 38% 30.48 in 9 mi East 11.5 mph - -   Scattered Clouds
3:00 PM 62.6 °F 42.8 °F 48% 30.48 in 6.2 mi East 11.5 mph - N/A   Partly Cloudy
4:00 PM 60.8 °F 44.6 °F 55% 30.48 in 6.2 mi East 11.5 mph - N/A   Partly Cloudy
5:00 PM 59.0 °F 42.8 °F 55% 30.51 in 6.2 mi East 9.2 mph - N/A   Partly Cloudy
6:00 PM 55 °F 42 °F 51% 30.55 in 9 mi East 2.3 mph - -   Partly Cloudy
6:00 PM 55.4 °F 42.8 °F 63% 30.54 in 6.2 mi East 2.3 mph - N/A   Partly Cloudy
7:00 PM 55.4 °F 42.8 °F 63% 30.57 in 6.2 mi ESE 6.9 mph - N/A   Partly Cloudy
8:00 PM 55.4 °F 42.8 °F 63% 30.57 in 6.2 mi ESE 9.2 mph - N/A   Partly Cloudy
9:00 PM 56 °F 44 °F 55% 30.58 in 9 mi ESE 6.9 mph - -   Partly Cloudy
9:00 PM 55.4 °F 44.6 °F 67% 30.57 in 6.2 mi ESE 6.9 mph - N/A   Partly Cloudy